Theta_e
321 315 310 310 299 297 294 297 301 303 304 311 314 315 315 315 312 304 329 335 338 340 340 343 346 347 347 347 347 347 346 347 344 343 341 340 338 337 336 337 336 336 337 336 335 335 335 334 335
317 314 310 303 295 291 293 300 301 304 309 314 316 316 314 311 320 327 330 338 340 338 339 341 343 345 345 347 347 346 347 346 345 342 340 339 338 336 336 335 336 335 336 335 335 334 334 334 334
313 311 305 300 294 292 293 302 305 308 311 311 312 318 316 314 321 325 335 339 338 336 338 340 342 345 346 347 346 346 346 345 345 342 341 338 338 337 335 336 335 334 334 334 332 333 333 333 333
309 307 303 296 293 296 301 305 306 306 308 314 315 312 318 323 323 331 339 339 335 334 337 340 343 345 345 346 346 346 345 344 342 341 339 337 335 336 335 335 335 334 334 333 332 332 332 332 332
309 305 296 294 295 296 300 306 306 305 306 308 313 312 313 323 330 335 337 337 333 333 336 339 342 344 344 345 345 346 345 344 340 339 337 336 335 334 334 334 334 334 333 333 332 331 331 330 331
305 302 294 292 295 297 298 303 307 305 307 309 313 313 314 323 331 335 336 334 335 334 336 338 336 339 342 343 344 345 344 343 339 337 336 335 335 334 334 334 334 333 333 332 331 330 329 329 330
304 298 295 293 294 294 301 305 304 307 307 306 317 311 313 318 330 335 334 334 333 334 334 335 336 335 334 337 339 341 341 340 339 338 337 336 336 335 335 335 333 333 332 331 330 329 329 329 329
303 301 296 294 295 295 303 302 305 307 306 313 318 310 312 320 331 334 333 332 332 332 332 332 333 334 333 333 332 334 336 337 337 336 333 331 332 332 332 330 333 332 330 329 329 328 328 328 328
309 295 294 297 297 298 303 301 304 307 309 313 317 316 318 324 332 331 330 329 329 330 329 330 331 331 330 330 327 329 331 332 331 329 327 325 325 326 325 327 330 331 329 328 327 327 326 326 325
304 295 297 301 298 301 304 302 304 305 306 308 313 320 323 326 327 326 327 326 327 326 326 328 329 330 329 330 327 327 328 326 325 324 323 324 323 324 325 323 327 329 328 329 327 327 327 322 319
303 299 304 300 300 302 302 301 303 303 303 309 312 317 321 322 322 325 327 328 328 328 327 326 327 330 329 326 325 324 323 323 322 322 323 322 320 320 320 319 321 319 320 318 320 320 319 319 319
297 303 305 303 301 300 299 301 300 301 302 308 316 321 321 320 322 323 324 327 327 328 327 327 326 328 327 326 324 325 323 322 321 323 323 318 316 315 315 315 315 315 316 317 318 318 319 320 320
299 301 307 306 300 298 300 298 298 298 300 310 321 321 321 321 321 323 324 324 327 327 329 330 326 325 324 325 323 322 323 323 323 323 322 318 316 315 316 316 317 318 318 319 318 319 320 320 319
305 304 304 300 298 299 299 297 297 298 309 317 319 318 320 321 321 321 323 323 323 324 326 329 327 324 324 324 322 321 321 322 323 323 322 322 320 318 318 318 319 319 319 320 320 320 318 317 320
306 300 302 300 298 299 300 297 296 299 313 315 316 316 317 318 319 320 323 322 323 324 326 327 328 327 323 323 322 320 320 321 321 322 322 322 321 319 319 319 320 320 321 320 320 319 318 315 316
298 299 294 298 300 300 299 293 301 302 307 312 313 313 315 317 319 321 322 323 323 324 325 327 330 328 324 323 322 321 320 319 319 320 321 322 322 320 319 319 320 321 321 321 319 318 316 315 315
293 289 295 298 301 300 297 293 301 302 300 303 309 313 314 316 317 320 322 323 323 323 324 325 327 327 326 322 321 320 320 319 319 319 320 321 322 321 319 319 320 321 319 319 318 316 314 312 314
288 290 293 293 298 297 294 294 299 300 299 299 299 309 313 314 317 320 321 323 323 323 324 325 326 327 327 323 319 318 317 318 318 320 321 321 321 321 319 320 320 320 318 317 316 315 315 314 316
295 292 293 295 299 296 294 296 297 301 298 296 296 297 308 314 319 320 321 323 321 322 323 324 324 326 325 322 318 316 317 315 316 319 321 321 322 321 320 319 319 319 317 317 316 315 315 318 315
295 294 292 297 297 298 296 295 298 300 300 300 300 298 298 310 314 319 320 321 322 322 322 323 323 325 325 326 322 319 317 317 319 320 321 323 322 322 321 319 319 318 316 315 314 315 314 316 315
295 293 294 295 292 297 294 293 294 299 300 302 302 303 300 303 311 316 318 320 322 321 321 322 323 324 325 326 323 318 317 316 316 317 319 322 323 322 321 320 319 318 316 315 314 315 315 314 314
292 298 298 296 291 290 296 289 291 296 300 301 303 302 301 300 306 314 317 318 321 321 323 323 324 324 324 325 324 322 320 318 320 320 320 321 322 323 322 321 320 319 318 316 316 317 317 316 312
293 300 297 294 291 291 289 288 290 294 294 298 301 302 302 303 301 310 314 319 321 323 321 321 321 323 324 323 323 323 322 322 319 318 318 320 321 322 322 321 319 319 318 319 318 317 320 318 314
298 295 293 292 292 287 290 290 290 292 295 297 300 302 305 303 299 303 313 317 319 322 321 319 315 319 322 322 323 321 320 320 317 317 319 320 323 322 320 320 320 320 319 319 319 319 320 319 316
297 294 283 284 284 282 288 287 293 294 297 298 300 300 302 303 301 299 303 311 315 316 319 320 319 315 317 319 321 321 321 320 319 319 320 320 321 321 322 320 320 320 320 320 319 320 320 317 315
295 294 282 277 278 281 285 284 289 298 303 300 300 300 299 299 299 299 298 304 313 316 318 320 321 320 315 317 318 320 321 320 320 321 321 322 322 323 323 322 322 321 320 319 319 320 318 314 311
294 291 291 282 273 278 282 285 291 295 294 297 298 298 297 296 295 296 298 299 306 311 317 319 320 322 321 317 317 317 319 319 320 321 322 323 323 323 321 320 320 320 319 318 317 315 313 309 307
296 297 287 283 274 274 280 281 285 289 294 295 294 293 293 294 293 294 294 296 300 307 310 314 317 320 322 322 321 318 317 319 320 321 321 322 323 320 315 316 318 320 321 317 314 314 305 305 302
292 292 290 290 283 278 275 280 289 292 297 295 294 294 294 293 293 294 294 294 294 295 301 307 310 312 314 316 320 321 321 319 319 320 321 322 322 318 315 315 316 318 316 313 311 310 307 305 303
295 294 294 287 282 282 281 281 290 292 292 294 292 293 293 293 293 294 294 295 295 295 295 295 296 300 306 310 312 313 314 314 316 320 322 321 322 318 318 317 316 314 313 309 309 306 301 301 299
Wind_Speed
9 8 2 5 6 6 2 2 2 2 4 4 2 8 8 4 3 3 2 9 13 8 6 6 9 13 13 12 13 13 13 14 17 19 18 15 16 17 16 16 18 16 18 18 18 17 16 16 17
6 6 5 3 6 3 4 3 3 1 6 8 8 4 7 2 1 7 6 9 11 10 6 6 8 10 11 11 12 12 14 13 19 18 18 16 15 16 15 17 17 16 17 18 17 16 16 16 18
6 4 3 5 3 2 3 2 5 3 3 3 5 7 4 2 3 4 10 11 11 8 6 6 8 10 13 14 13 13 15 15 18 18 19 17 14 14 14 17 16 17 16 17 16 15 15 16 17
4 5 4 5 3 2 7 6 5 5 1 6 5 8 3 3 2 6 14 12 11 7 6 8 9 10 12 14 14 13 15 16 18 15 16 14 13 13 13 16 15 15 15 15 16 15 14 15 15
3 3 3 2 2 1 2 4 6 4 2 3 3 4 2 3 5 10 14 11 13 6 6 6 8 8 9 11 13 14 16 17 17 16 15 14 14 14 14 15 15 14 14 14 15 14 12 12 13
2 3 3 2 2 3 2 6 5 3 2 4 7 5 4 2 8 10 13 11 11 9 6 5 7 7 7 9 11 14 17 16 17 15 15 15 15 14 14 14 14 14 13 13 13 12 11 10 10
3 3 4 4 0 2 4 5 6 6 5 2 9 5 1 3 8 11 11 11 9 7 7 5 5 7 8 6 9 11 12 16 17 14 13 12 12 13 11 12 12 12 12 11 11 9 8 7 8
3 3 2 3 2 3 2 2 3 5 3 4 5 6 6 7 10 10 12 10 9 6 6 5 6 5 6 5 8 9 10 11 14 13 12 10 11 10 10 9 10 11 10 9 8 7 6 7 8
2 3 2 3 5 3 3 4 1 2 5 4 3 5 5 10 14 11 10 9 7 7 6 5 6 6 4 6 5 8 8 9 10 9 10 8 4 5 6 7 8 8 7 6 5 4 2 3 5
2 4 6 1 4 5 5 5 6 4 3 3 3 4 9 11 13 14 13 12 11 10 7 5 6 7 7 3 3 4 5 4 4 4 4 3 4 4 5 6 8 6 5 5 4 2 1 3 2
2 5 3 2 3 4 5 4 2 8 3 7 8 8 9 10 8 12 13 14 13 12 8 7 6 7 8 6 4 2 0 3 3 6 4 4 3 3 3 2 2 2 3 0 1 1 1 2 1
2 5 2 1 1 1 5 6 4 5 6 7 9 16 13 13 14 13 11 11 12 12 11 9 7 6 5 4 4 5 4 2 2 4 5 4 3 4 3 2 3 3 2 3 3 2 2 2 2
3 2 2 2 4 2 3 4 5 5 3 5 12 13 15 12 10 8 10 8 11 11 10 10 8 8 6 7 5 5 5 4 4 4 4 3 3 3 3 3 3 3 2 2 3 3 2 2 2
2 5 2 2 3 3 5 0 0 1 6 8 13 13 13 14 12 8 10 12 9 8 10 8 8 9 8 7 7 6 5 5 4 4 5 6 4 4 4 3 4 4 4 3 4 3 2 3 3
2 3 2 5 4 2 1 5 5 2 7 10 10 11 11 12 9 13 12 10 12 9 9 11 11 9 10 9 9 6 6 5 5 5 6 7 6 7 6 5 4 4 4 5 3 2 1 1 0
5 2 3 4 6 3 5 7 5 8 9 10 10 10 12 14 15 12 8 9 10 12 14 11 10 10 11 10 8 7 7 5 5 5 5 7 6 6 5 4 4 5 4 4 3 2 2 2 2
2 4 6 3 8 4 6 4 8 4 9 10 11 12 12 11 12 13 11 10 13 14 14 13 12 11 10 10 8 8 8 7 6 5 5 7 6 6 5 4 4 4 3 3 2 2 1 1 1
5 4 4 8 7 6 5 9 8 5 7 11 10 12 12 12 19 17 15 12 9 14 14 14 12 12 10 5 5 4 4 5 5 7 6 7 5 7 5 4 5 5 4 4 2 3 1 2 3
6 4 6 3 5 6 9 12 11 11 4 8 8 8 12 15 15 12 14 13 10 12 14 14 14 13 8 5 5 4 7 4 4 5 8 8 8 8 7 5 5 5 5 6 5 3 4 3 4
3 6 5 5 3 6 7 13 11 8 8 9 13 11 12 12 9 12 12 12 13 15 15 14 14 14 12 9 4 4 4 4 6 6 7 9 8 8 8 7 6 6 4 5 5 5 2 2 4
8 6 5 5 2 4 2 10 5 9 8 10 11 14 10 15 16 14 14 15 14 16 18 17 17 16 14 14 4 2 2 1 3 4 6 8 9 10 9 8 7 6 5 5 5 5 7 4 3
15 10 4 3 3 4 4 8 5 7 17 11 17 13 16 13 11 14 16 14 18 19 16 17 16 16 14 15 11 12 9 10 9 9 6 7 9 10 10 9 8 7 5 6 6 6 5 4 4
8 11 8 3 3 0 4 4 7 4 7 12 12 17 16 17 14 14 16 19 17 16 15 14 15 14 13 13 16 11 12 9 4 4 6 7 8 11 10 10 9 9 7 9 9 7 9 7 5
7 7 5 4 2 10 9 8 9 8 9 9 7 11 13 13 12 13 14 16 14 13 12 13 14 15 15 15 16 15 16 13 6 6 8 8 8 8 10 11 11 11 10 11 10 10 10 9 8
7 13 4 6 6 12 5 9 17 7 11 8 10 10 10 10 10 10 11 10 11 12 14 12 15 16 16 17 17 18 18 16 16 14 12 11 9 8 13 13 12 11 12 12 10 10 11 9 9
24 18 7 10 6 7 2 11 9 14 22 10 8 8 7 8 8 9 10 10 12 15 16 15 15 17 16 18 20 19 17 12 13 13 11 11 11 12 12 12 13 13 12 12 11 9 9 8 7
17 19 8 7 3 4 6 8 9 11 11 9 13 9 9 8 6 6 7 9 11 10 13 15 15 16 14 16 13 14 13 14 13 14 11 11 11 9 10 11 12 12 11 11 10 9 10 7 8
21 13 7 1 7 5 6 6 9 7 15 9 8 11 9 7 5 4 1 2 5 6 6 6 8 12 12 11 11 11 13 14 14 11 14 13 12 9 7 9 10 11 12 11 9 8 5 8 6
8 17 6 7 5 6 2 9 9 14 17 11 10 8 8 9 8 5 3 3 3 4 5 6 6 6 6 6 8 8 9 10 11 12 11 13 10 8 9 10 11 12 11 10 9 9 7 11 10
10 15 18 10 13 4 3 8 3 10 5 7 8 8 7 7 8 6 5 3 3 3 2 2 3 6 7 6 6 6 4 4 6 9 12 9 11 8 12 12 12 11 11 10 11 11 10 12 12
Wind_Direction
322 326 9 37 51 59 340 53 110 113 57 338 35 89 103 55 56 186 355 132 130 123 115 112 117 115 116 118 117 112 115 112 107 105 97 93 92 90 92 86 84 82 86 86 86 86 87 78 67
320 347 31 81 81 54 290 316 124 270 146 126 94 92 52 62 5 115 107 142 122 119 114 116 128 121 117 119 121 121 113 110 106 103 102 94 89 91 91 89 87 83 87 87 85 87 86 73 65
317 64 70 91 111 159 174 248 149 130 160 135 95 56 94 150 100 151 135 138 120 112 116 129 127 122 119 123 128 118 107 105 102 97 102 98 95 96 101 91 89 87 88 89 89 90 84 71 69
353 10 18 91 155 268 166 196 180 137 68 61 119 74 40 263 140 152 136 137 115 120 125 127 126 122 122 128 127 122 118 108 101 105 96 107 107 103 102 96 91 91 91 90 87 88 81 70 70
31 63 58 72 188 177 135 196 168 135 121 102 124 134 77 356 87 132 133 132 123 120 117 117 120 114 125 132 131 130 126 114 114 113 118 115 113 114 111 103 98 95 94 91 88 86 81 75 71
28 90 70 197 245 143 164 197 159 110 133 157 78 98 179 200 136 134 128 126 131 128 121 126 128 115 109 121 134 125 124 122 121 128 128 129 123 121 116 113 105 100 97 94 93 89 84 79 70
113 89 205 167 3 139 186 166 141 152 142 67 142 100 210 260 150 134 126 125 131 126 125 130 138 123 113 105 133 129 127 130 132 135 130 124 122 122 111 108 110 104 99 98 97 95 90 78 65
102 109 204 193 187 220 195 86 103 117 174 125 131 158 180 219 139 133 132 133 137 135 135 139 128 122 122 117 108 119 122 129 130 130 127 124 117 110 104 101 112 110 109 108 107 96 77 56 31
93 71 236 194 166 193 174 122 7 87 102 64 13 151 192 147 138 131 138 142 147 147 151 149 139 125 123 127 121 120 131 128 131 133 131 115 119 117 114 118 114 122 127 131 124 107 68 32 4
124 133 209 289 186 172 169 151 151 111 112 35 27 5 127 136 153 154 162 161 166 163 167 166 152 144 134 110 107 130 134 132 135 121 126 120 133 139 134 131 132 139 153 155 149 144 23 53 54
193 195 216 333 30 124 151 121 151 127 220 199 185 167 147 148 162 164 176 170 170 172 169 176 172 168 155 151 150 128 76 144 146 146 151 155 142 136 127 137 147 158 181 142 352 3 115 131 130
195 229 235 220 112 314 170 146 167 182 216 195 174 166 161 169 177 174 173 169 165 166 175 178 172 173 174 148 157 162 158 188 170 192 172 159 169 159 160 169 176 182 206 209 206 218 191 183 183
204 263 259 267 189 211 150 175 191 230 246 98 141 163 176 182 180 183 179 174 167 172 179 179 167 176 178 165 169 166 180 179 194 198 194 167 171 167 169 194 187 212 206 205 191 217 219 240 222
255 224 228 208 192 211 176 175 166 251 130 128 156 178 185 189 185 179 190 182 184 171 179 177 174 179 173 179 177 183 181 192 186 184 187 189 173 182 198 208 212 213 202 198 184 190 194 245 244
222 336 206 201 187 231 128 294 222 175 147 159 183 186 192 201 200 200 194 188 184 191 182 186 182 176 177 187 186 176 190 181 185 190 190 187 189 189 186 192 199 206 200 183 168 189 223 249 232
151 205 140 229 150 261 144 251 251 226 164 191 193 196 200 208 208 211 196 197 199 189 195 189 191 186 184 188 186 184 189 186 189 193 191 199 201 197 191 195 204 200 187 179 174 192 250 275 165
335 175 180 238 199 149 181 254 245 227 182 209 201 204 207 211 218 215 207 199 199 195 194 195 194 193 195 187 191 184 184 186 189 184 200 202 196 195 193 204 222 203 198 172 179 208 194 239 124
177 153 186 195 216 198 210 242 271 265 188 220 204 212 209 209 217 215 211 196 194 199 195 195 196 202 199 182 180 189 174 196 187 195 195 195 194 197 192 203 210 194 183 171 174 208 226 268 108
162 169 185 221 224 177 222 246 246 259 248 257 247 218 221 218 222 212 213 200 182 196 198 195 194 199 187 187 190 199 195 193 211 203 193 196 196 193 194 199 198 183 189 190 187 176 191 214 123
230 202 229 294 267 186 263 255 242 251 239 218 236 232 219 226 218 206 212 211 190 192 202 195 199 198 196 197 194 194 170 200 208 211 206 205 200 200 198 194 202 197 190 202 189 185 178 197 189
214 201 184 213 210 198 334 269 219 249 241 246 238 238 213 212 211 209 205 207 202 196 197 198 199 197 201 198 160 127 110 71 182 213 216 214 205 205 203 199 198 200 188 203 195 194 191 187 221
211 168 200 208 191 222 137 280 252 236 241 242 242 230 232 211 218 214 202 204 206 209 197 197 198 199 199 195 193 204 207 210 214 214 213 209 206 212 210 206 203 199 196 203 209 204 207 155 183
219 164 173 138 170 222 197 260 269 222 246 245 234 228 227 228 207 205 203 205 207 204 199 193 194 199 196 193 203 205 215 218 200 200 201 208 208 214 210 205 201 202 202 215 209 204 209 197 165
147 83 72 83 134 241 199 207 232 204 212 247 240 236 228 230 210 217 210 205 208 202 196 196 188 198 194 194 199 204 213 211 193 200 208 208 211 207 210 207 206 207 209 211 215 219 219 209 197
165 155 178 212 203 247 205 208 249 232 238 227 246 253 245 226 225 201 205 199 199 194 199 195 195 199 195 196 199 204 208 204 206 206 210 207 208 211 216 206 210 213 215 216 213 215 218 209 205
192 172 164 187 194 231 97 234 249 226 236 223 233 237 263 247 220 223 208 208 206 202 203 199 200 205 199 200 206 207 207 210 216 217 213 218 217 218 218 215 219 220 217 218 217 223 222 201 197
189 200 155 92 32 88 220 283 298 263 253 228 219 232 239 247 222 217 226 204 204 197 200 199 201 212 204 210 214 216 215 215 219 222 218 224 226 226 217 209 213 218 217 220 213 218 221 203 205
185 169 164 41 154 223 252 267 233 227 233 233 209 209 211 214 193 193 157 191 213 200 186 193 212 213 210 205 206 209 209 214 220 214 220 220 227 216 203 206 213 219 221 217 212 224 207 197 208
153 189 189 147 165 185 196 252 212 203 221 209 211 205 191 184 184 178 131 98 112 127 168 193 204 213 211 208 216 216 215 211 216 222 219 222 222 209 202 206 213 218 208 205 205 212 211 223 217
206 198 188 188 211 229 161 269 226 232 243 182 183 183 180 176 168 150 129 119 106 110 122 197 211 212 214 207 207 216 221 221 226 226 230 215 219 204 210 213 216 212 213 200 205 207 201 209 213